This is the latest recevied weather packets stored in our database for station/object EPGD. If no packets are shown the sender has not sent any weather packets the latest 10 day(s).
| Time | Temp. | Humidity | Pressure | Rain* | Wind** | Luminosity | Snow |
|---|---|---|---|---|---|---|---|
| 1777595704 | 3.89° C | 75% | 1026 hPa | - | - | - | - |
| 1777593904 | 5° C | 70% | 1027 hPa | - | - | - | - |
| 1777592104 | 5.56° C | 65% | 1027 hPa | - | - | - | - |
| 1777590304 | 5.56° C | 60% | 1027 hPa | - | - | - | - |
| 1777588503 | 5.56° C | 65% | 1027 hPa | - | - | - | - |
| 1777586703 | 6.67° C | 60% | 1027 hPa | - | - | - | - |
| 1777584903 | 5.56° C | 60% | 1027 hPa | - | - | - | - |
| 1777583104 | 7.78° C | 52% | 1026 hPa | - | - | - | - |
| 1777581304 | 7.78° C | 52% | 1026 hPa | - | - | - | - |
| 1777579504 | 8.89° C | 49% | 1027 hPa | - | - | - | - |
| 1777577704 | 10° C | 49% | 1027 hPa | - | - | - | - |
| 1777575904 | 10° C | 49% | 1027 hPa | - | - | - | - |
| 1777574104 | 10.56° C | 46% | 1026 hPa | - | - | - | - |
| 1777572304 | 10.56° C | 46% | 1026 hPa | - | - | - | - |
| 1777570504 | 12.78° C | 37% | 1026 hPa | - | - | - | - |
| 1777568704 | 13.89° C | 33% | 1026 hPa | - | - | - | - |
| 1777566904 | 15° C | 28% | 1026 hPa | - | - | - | - |
| 1777565104 | 15° C | 26% | 1026 hPa | - | - | - | - |
| 1777563304 | 13.89° C | 24% | 1027 hPa | - | - | - | - |
| 1777561504 | 15° C | 21% | 1027 hPa | - | - | - | - |
| 1777559704 | 13.89° C | 30% | 1027 hPa | - | - | - | - |
| 1777557904 | 15° C | 30% | 1027 hPa | - | - | - | - |
| 1777556103 | 15° C | 38% | 1027 hPa | - | - | - | - |
| 1777554304 | 15° C | 44% | 1027 hPa | - | - | - | - |
| 1777552504 | 15° C | 38% | 1027 hPa | - | - | - | - |
* Rain since midnight (hover to see other rain measurements)
** Current wind speed in m/s (hover to see current wind gust speed)